Regional Weather Roundup
Issued by NWS New Orleans/Baton Rouge, LA

Home | Current Version | Previous Version | Graphics & Text | Print | Product List | Glossary On
Versions: 1 2 3 4 5 6 7 8 9 10 11 12 13 14 15 16 17 18 19 20 21 22 23 24 25 26 27 28 29 30 31 32 33 34 35 36 37 38 39 40 41 42 43 44 45 46 47 48 49 50
792
ASUS44 KLIX 231605
RWRLIX
NEW ORLEANS REGIONAL WEATHER ROUNDUP
NATIONAL WEATHER SERVICE NEW ORLEANS LA
1100 AM CDT WED JUL 23 2014

NOTE: "FAIR" INDICATES FEW OR NO CLOUDS BELOW 12,000 FEET WITH NO
      SIGNIFICANT WEATHER AND/OR OBSTRUCTIONS TO VISIBILITY.
      SKY/WX - SKY CONDITION AND SIGNIFICANT WEATHER.
      TMP - AIR TEMPERATURE.     DP    - DEWPOINT TEMPERATURE.
      RH  - RELATIVE HUMIDITY.   PRES  - PRESSURE.
      HI  - HEAT INDEX.          WCI   - WIND CHILL INDEX.

*  THESE STATIONS ARE NOT NWS OR FAA STATIONS AND ARE NOT UNDER
   NWS QUALITY CONTROL.

LAZ038-040-048-061>063-065>067-069-231700-
SOUTHEAST LOUISIANA

CITY           SKY/WX    TMP DP  RH WIND       PRES   REMARKS
N.O. AUDUBON     N/A     76  72  87 MISG        N/A
N.O. INTL ARPT TSTM      75  72  90 E3        30.07R
N.O. LAKEFRONT PTSUNNY   75  71  87 SW8       30.07R
N.O. DOWNTOWN* PTSUNNY   73  68  83 CALM      30.07S
SLIDELL        PTSUNNY   82  73  74 S10       30.06R
BATON ROUGE    MOSUNNY   84  73  69 VRB7      30.06R
BOOTHVILLE     CLOUDY    75  73  93 S8        30.09S
BELLE CHASSE   CLOUDY    77  70  79 N5        30.06S
BOGALUSA*        N/A     84  73  68 CALM      30.08S
GALLIANO*      NOT AVBL
NEW ROADS*       N/A     82  71  69 N6        30.06S
GONZALES*      PTSUNNY   84  76  74 NE5       30.05R
HAMMOND*       MOSUNNY   88  72  58 CALM      30.08R
HOUMA*         PTSUNNY   81  70  69 S7        30.05S
PORT FOURCHON* PTSUNNY   82  73  74 SW10      30.07S

$$

MSZ070-080>082-231700-
SOUTHERN MISSISSIPPI

CITY           SKY/WX    TMP DP  RH WIND       PRES   REMARKS
MCCOMB         SUNNY     82  69  64 CALM      30.08S
GULFPORT       MOSUNNY   82  70  66 MISG      30.06S
BILOXI         PTSUNNY   80  71  75 SW2       30.06S
PASCAGOULA     LGT RAIN  81  73  76 S6        30.06S
STENNIS ARPT*  MOSUNNY  N/A N/A N/A S6        30.06S

$$

COASTAL OBSERVATIONS
LAKE AND NEARSHORE STATIONS

STATION/POSITION TIME  TEMP    WIND        PRES    WAVE
                       AIR SEA DIR/SP/G            HT/PER
                 (UTC) (F)     (DEG/KT/KT) (MB)    (FT/S)
PASCAGOULA       1600   78      CALM  /  6 1017.6
WAVELAND YACHT   1600   80     180/  4/  5 1017.1
GRAND ISLE       1600   81 84  110/  9/ 13 1018.5
SOUTHWEST PASS   1600   76 84   90/  2/  5 1018.9
NEW CANAL        1600   75 81  180/  5/  7 1018.6
SHELL BEACH      1600   77 80  230/  5/  6 1018.1

OFFSHORE STATIONS

STATION/POSITION TIME  TEMP    WIND        PRES    WAVE
                       AIR SEA DIR/SP/G            HT/PER
                 (UTC) (F)     (DEG/KT/KT) (MB)    (FT/S)
64 S DAUPHIN ISL 1548   82 84  200/ 12/ 14 1018.5

$$




USA.gov is the U.S. government's official web portal to all federal, state and local government web resources and services.